Location: Barcelona
(41.3829°N, 2.1774°E)
Time: 13:19:56
(UTC+00:00)

ISS - Pass Details

Date: 12 July 2024
Orbit: 410 x 424 km, 51.6° (Epoch: 14 July)

Event Time Altitude Azimuth Distance (km) Brightness Sun altitude
Rises 02:38:34 0° 302° (WNW) 2,348 0.0 -16.5°
Reaches altitude 10° 02:40:41 10° 298° (WNW) 1,485 -1.1 -16.2°
Maximum altitude 02:43:56 54° 220° (SW) 510 -3.8 -15.8°
Drops below altitude 10° 02:47:12 10° 142° (SE) 1,484 -1.1 -15.4°
Sets 02:49:19 0° 138° (SE) 2,346 0.0 -15.2°
